Time,TemperatureF,DewpointF,PressureIn,WindDirection,WindDirectionDegrees,WindSpeedMPH,WindSpeedGustMPH,Humidity,HourlyPrecipIn,Conditions,Clouds,dailyrainin,SoftwareType,DateUTC
2013-07-29 00:00:00,63.0,-99.9,-100.00,West,276,2.0,2.0,-999,-99.99,,,-99.99,,2013-07-29 07:00:00,
2013-07-29 00:43:00,63.0,-99.9,-100.00,West,276,2.0,2.0,-999,-99.99,,,-99.99,,2013-07-29 07:43:00,
2013-07-29 00:53:00,63.0,-99.9,-100.00,West,276,2.0,2.0,-999,-99.99,,,-99.99,,2013-07-29 07:53:00,
2013-07-29 01:43:00,58.0,-99.9,-100.00,NNW,334,0.0,3.0,-999,-99.99,,,-99.99,,2013-07-29 08:43:00,
2013-07-29 01:52:00,58.0,-99.9,-100.00,NNW,334,0.0,3.0,-999,-99.99,,,-99.99,,2013-07-29 08:52:00,
2013-07-29 02:12:00,58.0,-99.9,-100.00,SSE,153,2.0,3.0,-999,-99.99,,,-99.99,,2013-07-29 09:12:00,
2013-07-29 02:33:00,58.0,-99.9,-100.00,East,84,5.0,6.0,-999,-99.99,,,-99.99,,2013-07-29 09:33:00,
2013-07-29 02:43:00,58.0,-99.9,-100.00,East,84,5.0,6.0,-999,-99.99,,,-99.99,,2013-07-29 09:43:00,
2013-07-29 02:53:00,58.0,-99.9,-100.00,East,84,5.0,6.0,-999,-99.99,,,-99.99,,2013-07-29 09:53:00,
2013-07-29 03:00:00,50.0,-99.9,-100.00,SSE,157,2.0,4.0,-999,-99.99,,,-99.99,,2013-07-29 10:00:00,
2013-07-29 03:50:00,50.0,-99.9,-100.00,SSE,157,2.0,4.0,-999,-99.99,,,-99.99,,2013-07-29 10:50:00,
2013-07-29 03:57:00,50.0,-99.9,-100.00,SSE,157,2.0,4.0,-999,-99.99,,,-99.99,,2013-07-29 10:57:00,
2013-07-29 04:00:00,54.0,-99.9,-100.00,NNE,27,0.0,0.0,-999,-99.99,,,-99.99,,2013-07-29 11:00:00,
2013-07-29 04:59:00,54.0,-99.9,-100.00,NNE,27,0.0,0.0,-999,-99.99,,,-99.99,,2013-07-29 11:59:00,
2013-07-29 05:00:00,48.0,-99.9,-100.00,ESE,111,2.0,5.0,-999,-99.99,,,-99.99,,2013-07-29 12:00:00,
2013-07-29 05:49:00,48.0,-99.9,-100.00,ESE,111,2.0,5.0,-999,-99.99,,,-99.99,,2013-07-29 12:49:00,
2013-07-29 05:58:00,48.0,-99.9,-100.00,ESE,111,2.0,5.0,-999,-99.99,,,-99.99,,2013-07-29 12:58:00,
2013-07-29 06:25:00,54.0,-99.9,-100.00,NE,55,0.0,0.0,-999,-99.99,,,-99.99,,2013-07-29 13:25:00,
2013-07-29 06:47:00,46.0,-99.9,-100.00,East,94,0.0,3.0,-999,-99.99,,,-99.99,,2013-07-29 13:47:00,
2013-07-29 06:58:00,46.0,-99.9,-100.00,East,94,0.0,3.0,-999,-99.99,,,-99.99,,2013-07-29 13:58:00,
2013-07-29 07:00:00,58.0,-99.9,-100.00,NE,51,0.0,0.0,-999,-99.99,,,-99.99,,2013-07-29 14:00:00,
2013-07-29 07:59:00,58.0,-99.9,-100.00,NE,51,0.0,0.0,-999,-99.99,,,-99.99,,2013-07-29 14:59:00,
2013-07-29 08:05:00,62.0,-99.9,-100.00,NE,47,4.0,5.0,-999,-99.99,,,-99.99,,2013-07-29 15:05:00,
2013-07-29 08:40:00,65.0,-99.9,-100.00,ENE,74,0.0,4.0,-999,-99.99,,,-99.99,,2013-07-29 15:40:00,
2013-07-29 08:47:00,62.0,-99.9,-100.00,ENE,68,3.0,4.0,-999,-99.99,,,-99.99,,2013-07-29 15:47:00,
2013-07-29 08:58:00,62.0,-99.9,-100.00,NE,47,4.0,5.0,-999,-99.99,,,-99.99,,2013-07-29 15:58:00,
2013-07-29 09:25:00,65.0,-99.9,-100.00,ENE,74,0.0,4.0,-999,-99.99,,,-99.99,,2013-07-29 16:25:00,
2013-07-29 09:49:00,66.0,-99.9,-100.00,ENE,62,3.0,4.0,-999,-99.99,,,-99.99,,2013-07-29 16:49:00,
2013-07-29 09:59:00,66.0,-99.9,-100.00,ENE,62,3.0,4.0,-999,-99.99,,,-99.99,,2013-07-29 16:59:00,
2013-07-29 10:11:00,69.0,-99.9,-100.00,NE,42,0.0,4.0,-999,-99.99,,,-99.99,,2013-07-29 17:11:00,
2013-07-29 11:00:00,73.0,-99.9,-100.00,NW,323,5.0,5.0,-999,-99.99,,,-99.99,,2013-07-29 18:00:00,
2013-07-29 11:48:00,73.0,-99.9,-100.00,NW,323,5.0,5.0,-999,-99.99,,,-99.99,,2013-07-29 18:48:00,
2013-07-29 12:00:00,83.0,-99.9,-100.00,SSW,194,0.0,5.0,-999,-99.99,,,-99.99,,2013-07-29 19:00:00,
2013-07-29 12:48:00,83.0,-99.9,-100.00,SSW,194,0.0,5.0,-999,-99.99,,,-99.99,,2013-07-29 19:48:00,
2013-07-29 13:00:00,85.0,-99.9,-100.00,West,277,0.0,5.0,-999,-99.99,,,-99.99,,2013-07-29 20:00:00,
2013-07-29 13:49:00,85.0,-99.9,-100.00,West,277,0.0,5.0,-999,-99.99,,,-99.99,,2013-07-29 20:49:00,
2013-07-29 13:59:00,85.0,-99.9,-100.00,West,277,0.0,5.0,-999,-99.99,,,-99.99,,2013-07-29 20:59:00,
2013-07-29 14:00:00,88.0,-99.9,-100.00,East,98,0.0,4.0,-999,-99.99,,,-99.99,,2013-07-29 21:00:00,
2013-07-29 14:50:00,88.0,-99.9,-100.00,East,98,0.0,4.0,-999,-99.99,,,-99.99,,2013-07-29 21:50:00,
2013-07-29 15:00:00,88.0,-99.9,-100.00,ESE,120,0.0,5.0,-999,-99.99,,,-99.99,,2013-07-29 22:00:00,
2013-07-29 15:48:00,88.0,-99.9,-100.00,ESE,120,0.0,5.0,-999,-99.99,,,-99.99,,2013-07-29 22:48:00,
2013-07-29 15:58:00,88.0,-99.9,-100.00,ESE,120,0.0,5.0,-999,-99.99,,,-99.99,,2013-07-29 22:58:00,
2013-07-29 16:00:00,91.0,-99.9,-100.00,SSE,155,3.0,4.0,-999,-99.99,,,-99.99,,2013-07-29 23:00:00,
2013-07-29 16:50:00,91.0,-99.9,-100.00,SSE,155,3.0,4.0,-999,-99.99,,,-99.99,,2013-07-29 23:50:00,
2013-07-29 16:59:00,91.0,-99.9,-100.00,SSE,155,3.0,4.0,-999,-99.99,,,-99.99,,2013-07-29 23:59:00,
2013-07-29 17:00:00,91.0,-99.9,-100.00,NE,43,5.0,6.0,-999,-99.99,,,-99.99,,2013-07-30 00:00:00,
2013-07-29 17:15:00,90.0,-99.9,-100.00,North,5,4.0,5.0,-999,-99.99,,,-99.99,,2013-07-30 00:15:00,
2013-07-29 17:53:00,91.0,-99.9,-100.00,NE,43,5.0,6.0,-999,-99.99,,,-99.99,,2013-07-30 00:53:00,
2013-07-29 17:58:00,91.0,-99.9,-100.00,NE,43,5.0,6.0,-999,-99.99,,,-99.99,,2013-07-30 00:58:00,
2013-07-29 18:00:00,88.0,-99.9,-100.00,NW,319,5.0,6.0,-999,-99.99,,,-99.99,,2013-07-30 01:00:00,
2013-07-29 18:47:00,88.0,-99.9,-100.00,NW,319,5.0,6.0,-999,-99.99,,,-99.99,,2013-07-30 01:47:00,
2013-07-29 19:00:00,86.0,-99.9,-100.00,NW,324,2.0,5.0,-999,-99.99,,,-99.99,,2013-07-30 02:00:00,
2013-07-29 19:35:00,83.0,-99.9,-100.00,WNW,282,3.0,4.0,-999,-99.99,,,-99.99,,2013-07-30 02:35:00,
2013-07-29 19:47:00,86.0,-99.9,-100.00,NW,324,2.0,5.0,-999,-99.99,,,-99.99,,2013-07-30 02:47:00,
2013-07-29 19:57:00,86.0,-99.9,-100.00,NW,324,2.0,5.0,-999,-99.99,,,-99.99,,2013-07-30 02:57:00,
2013-07-29 20:28:00,83.0,-99.9,-100.00,WNW,282,3.0,4.0,-999,-99.99,,,-99.99,,2013-07-30 03:28:00,
2013-07-29 20:50:00,81.0,-99.9,-100.00,NW,306,4.0,4.0,-999,-99.99,,,-99.99,,2013-07-30 03:50:00,
2013-07-29 20:57:00,81.0,-99.9,-100.00,NW,306,4.0,4.0,-999,-99.99,,,-99.99,,2013-07-30 03:57:00,
2013-07-29 21:00:00,77.0,-99.9,-100.00,West,259,4.0,5.0,-999,-99.99,,,-99.99,,2013-07-30 04:00:00,
2013-07-29 21:13:00,78.0,-99.9,-100.00,WNW,288,3.0,5.0,-999,-99.99,,,-99.99,,2013-07-30 04:13:00,
2013-07-29 21:23:00,78.0,-99.9,-100.00,WNW,288,3.0,5.0,-999,-99.99,,,-99.99,,2013-07-30 04:23:00,
2013-07-29 21:33:00,77.0,-99.9,-100.00,West,259,4.0,5.0,-999,-99.99,,,-99.99,,2013-07-30 04:33:00,
2013-07-29 21:43:00,77.0,-99.9,-100.00,West,259,4.0,5.0,-999,-99.99,,,-99.99,,2013-07-30 04:43:00,
2013-07-29 21:53:00,77.0,-99.9,-100.00,West,259,4.0,5.0,-999,-99.99,,,-99.99,,2013-07-30 04:53:00,
2013-07-29 22:00:00,76.0,-99.9,-100.00,WNW,291,4.0,7.0,-999,-99.99,,,-99.99,,2013-07-30 05:00:00,
2013-07-29 22:45:00,76.0,-99.9,-100.00,WNW,291,4.0,7.0,-999,-99.99,,,-99.99,,2013-07-30 05:45:00,
2013-07-29 22:53:00,76.0,-99.9,-100.00,WNW,291,4.0,7.0,-999,-99.99,,,-99.99,,2013-07-30 05:53:00,
2013-07-29 23:00:00,76.0,-99.9,-100.00,WNW,297,4.0,8.0,-999,-99.99,,,-99.99,,2013-07-30 06:00:00,
2013-07-29 23:53:00,76.0,-99.9,-100.00,WNW,297,4.0,8.0,-999,-99.99,,,-99.99,,2013-07-30 06:53:00,